Flag for U.S.A. Weather past 2 weeks in Warren, Michigan, U.S.A.

Now
22 °F

Clear.


Feels Like: 22 °F
Forecast: 25 / 36 °F
Wind: No wind

Location: Detroit City Airport

Current Time: Dec 20, 2014 at 2:18:02 AM

Latest Report: Dec 20, 2014 at 1:53 AM


Visibility: 10 mi

Pressure: 30.31 "Hg

Humidity: 78%

Dew point: 16 °F

Location of WarrenLocation

Historic Weather in Warren — Graph

°F

Warren temperature yesterday

Maximum temperature yesterday: 34 °F (at 2:53 PM)
Minimum temperature yesterday: 25 °F (at 11:53 PM)
Average temperature yesterday: 29 °F

Past Weeks' High & Low Weather Summary

 TemperatureHumidityPressure
High52 °F (Dec 14, 12:53 PM)93% (Dec 16, 9:53 AM)30.73 "Hg (Dec 16, 9:53 AM)
Low23 °F (Dec 11, 3:53 AM)28% (Dec 11, 12:53 PM)29.67 "Hg (Dec 16, 12:53 PM)
Average37 °F70%30.18 "Hg
* Reported Dec 5 12:53 AM — Dec 20 12:53 AM, Warren, Weather by CustomWeather, © 2014

Note: Actual official high and low records may vary slightly from our data, if they occured in-between our weather recording intervals... More about our weather records

Advertising

Warren weather history for previous 24 hours

 ConditionsComfort  
Time TempWeatherWind HumidityBarometerVisibility
12:53 AM
Dec 20
25 °FClear.3 mph75%30.31 "Hg10 mi
11:53 PM
Dec 19
25 °FClear.No wind75%30.32 "Hg10 mi
10:53 PM26 °FClear.3 mph71%30.31 "Hg10 mi
9:53 PM27 °FClear.3 mph69%30.32 "Hg10 mi
8:53 PM28 °FClear.No wind69%30.34 "Hg10 mi
7:53 PM28 °FClear.6 mph69%30.36 "Hg10 mi
6:53 PM28 °FClear.8 mph69%30.34 "Hg10 mi
5:53 PM30 °FClear.7 mph64%30.31 "Hg10 mi
4:53 PM31 °FSunny.5 mph59%30.29 "Hg10 mi
3:53 PM32 °FSunny.5 mph56%30.28 "Hg10 mi
2:53 PM34 °FPartly sunny.No wind54%30.27 "Hg10 mi
1:53 PM32 °FPartly sunny.3 mph56%30.28 "Hg10 mi
12:53 PM32 °FScattered clouds.No wind56%30.29 "Hg10 mi
11:53 AM30 °FPartly sunny.3 mph59%30.29 "Hg10 mi
10:53 AM30 °FOvercast.9 mph61%30.31 "Hg10 mi
9:53 AM29 °FOvercast.6 mph64%30.31 "Hg10 mi
8:53 AM29 °FOvercast.No wind66%30.30 "Hg10 mi
7:53 AM29 °FOvercast.5 mph66%30.28 "Hg10 mi
6:53 AM29 °FOvercast.8 mph66%30.27 "Hg10 mi
5:53 AM29 °FOvercast.9 mph69%30.25 "Hg10 mi
4:53 AM29 °FOvercast.12 mph69%30.24 "Hg10 mi
3:53 AM29 °FOvercast.8 mph69%30.24 "Hg10 mi
2:53 AM29 °FMostly cloudy.8 mph75%30.23 "Hg10 mi
Weather by CustomWeather, © 2014

See weather overviewHow to use our weather pages